GFSWCAN_250_rhum_000.txt.gz
RH
100 82 99 100 95 100 100 100 98 77 98 100 99 99 100 100 100 100 87 86 92 88 84 82 78 73 77 80 82 96 76 55 44 51 64 74 62 71 84 82 72 64 66 70 59 60 76 77 77 80 63 62 70 92
100 99 85 100 100 100 100 100 100 97 74 85 95 95 100 100 100 100 100 97 90 86 90 81 68 61 65 70 72 60 71 80 65 69 65 60 56 61 62 69 82 87 90 65 56 68 86 70 75 72 80 73 74 83
94 100 94 95 100 100 100 100 100 100 100 71 64 83 90 95 100 100 100 100 96 86 82 73 61 60 69 86 86 91 86 72 62 58 64 72 68 66 68 65 80 99 84 67 56 80 71 73 72 68 61 70 78 93
85 95 100 97 99 100 100 100 100 100 100 100 88 75 73 80 81 82 81 76 74 76 77 84 95 99 98 95 100 82 70 59 49 51 60 60 58 67 60 57 73 88 67 56 58 66 64 70 76 85 95 100 100 100
76 96 97 100 100 100 100 100 100 100 100 100 100 100 96 87 86 89 88 90 96 99 100 100 100 100 100 97 83 76 71 68 57 65 68 74 78 63 61 67 87 82 64 69 84 88 82 84 97 100 99 96 93 72
61 87 81 91 94 92 83 87 98 100 100 100 100 100 100 100 100 100 100 100 100 100 100 100 100 100 85 83 98 92 85 91 83 79 78 90 99 88 77 81 100 79 73 80 77 85 86 88 77 62 61 65 68 76
65 60 74 75 80 95 87 89 86 96 100 100 100 100 100 100 99 98 88 87 83 80 81 71 81 96 100 100 100 92 82 78 72 73 83 94 87 73 68 74 69 69 74 77 76 67 55 52 68 66 68 82 92 81
69 64 71 87 82 93 77 76 84 95 99 100 100 100 100 100 100 100 100 100 100 96 100 100 96 100 100 100 100 92 89 83 79 77 71 68 66 78 80 83 80 71 61 51 52 62 67 77 78 84 99 96 99 94
73 56 55 74 92 92 100 82 73 69 77 89 93 98 98 98 96 94 98 94 94 87 81 72 77 95 100 99 81 89 93 92 83 83 89 94 98 97 84 74 64 53 48 59 68 74 82 99 96 100 100 97 77 64
73 70 66 61 62 94 100 94 74 64 70 75 93 88 77 83 93 99 100 100 92 81 67 69 76 89 98 100 100 100 100 100 100 100 99 84 73 63 55 55 63 72 75 72 74 93 88 92 100 91 78 60 52 37
71 67 74 78 66 64 81 98 92 86 74 68 75 66 79 91 92 98 100 96 84 86 86 90 100 100 91 87 82 75 68 72 79 75 70 69 71 67 64 61 65 58 61 77 87 85 94 82 80 63 52 50 39 38
75 77 82 65 66 64 59 71 79 92 93 86 90 84 82 78 86 85 76 73 72 67 76 91 76 63 67 76 75 67 64 58 51 53 53 51 55 50 54 62 70 73 87 94 88 80 78 67 52 41 34 23 19 14
81 82 71 64 66 64 55 57 53 63 92 94 86 77 79 91 90 75 74 74 76 74 73 76 70 64 59 58 61 60 59 69 64 63 60 61 68 70 76 82 94 96 87 82 77 75 54 36 31 21 16 14 13 13
87 100 84 78 71 74 82 74 65 50 47 53 61 58 54 53 62 69 69 70 61 56 67 78 78 78 76 72 74 69 65 63 62 74 68 68 72 86 93 95 87 77 76 75 49 49 32 18 16 17 16 14 13 10
72 78 77 74 77 89 87 82 84 84 73 67 56 52 54 63 59 53 54 53 48 49 60 64 62 63 67 67 71 72 69 70 68 67 72 78 92 96 72 67 66 62 51 45 31 20 15 15 16 16 16 14 9 6
15 39 93 78 70 80 87 73 81 83 83 91 93 93 85 82 75 79 59 53 63 74 75 70 64 60 65 68 70 84 92 85 66 67 77 87 78 76 69 63 47 37 27 19 16 15 17 16 15 14 12 8 6 6
11 12 22 71 99 74 70 73 61 35 46 64 77 100 90 87 98 90 78 72 67 70 72 75 72 71 82 85 91 82 76 70 81 85 59 51 54 44 33 25 23 24 20 18 16 16 15 13 11 8 6 6 5 4
8 9 10 12 15 17 10 8 12 24 32 54 68 77 81 93 99 97 100 99 97 97 93 95 98 98 95 94 94 69 50 42 42 36 30 33 26 20 16 18 21 19 18 16 13 11 10 8 6 6 6 4 4 4
8 8 8 9 11 11 11 10 10 22 40 44 42 49 54 66 60 59 70 74 59 51 51 59 63 70 74 56 30 27 31 27 23 20 17 16 17 18 19 17 15 14 12 10 8 8 7 5 5 5 4 4 5 4
4 5 6 6 7 8 10 12 13 14 17 20 28 41 48 52 50 42 30 30 32 46 50 57 60 38 26 32 29 23 20 18 14 14 18 18 16 14 13 12 11 9 7 7 7 5 5 4 4 4 4 4 5 5
8 9 11 12 11 10 10 12 13 14 14 16 14 15 21 18 20 20 21 20 31 44 40 31 24 22 18 20 16 14 15 13 14 14 13 13 14 12 11 8 6 6 6 5 5 4 3 4 4 4 4 4 4 5
6 6 7 8 9 9 8 8 9 10 11 12 12 12 11 11 11 12 12 12 13 14 13 15 15 14 14 13 12 12 12 11 11 11 11 10 9 8 7 6 6 6 5 4 4 4 4 4 4 4 4 4 4 5
4 4 5 6 5 5 5 5 5 5 6 6 6 7 8 8 8 9 10 11 11 11 11 11 10 10 10 10 10 10 9 8 9 9 8 7 6 5 5 6 5 4 4 4 4 4 4 4 4 4 4 4 5 5
4 4 4 4 5 5 5 5 5 5 5 6 6 6 7 7 8 8 9 10 10 9 9 9 9 10 9 8 8 8 8 7 7 6 6 4 4 5 5 4 3 3 4 4 4 4 4 4 4 4 4 4 4 5
4 4 4 4 4 4 4 4 5 6 6 7 7 7 8 8 8 9 9 9 7 6 6 6 6 6 6 7 6 6 5 5 5 4 4 3 4 4 4 3 3 3 5 4 4 4 4 4 4 4 4 5 5 6
4 4 4 4 4 4 4 5 6 6 6 6 7 7 7 7 7 7 7 5 4 4 4 5 5 4 4 4 4 4 4 3 3 3 3 3 4 4 4 4 4 3 4 4 4 4 4 4 4 5 5 6 6 5
3 3 3 3 4 4 4 5 5 5 5 4 4 4 4 4 5 4 4 4 4 3 4 4 4 3 3 3 3 3 3 3 3 4 4 3 3 4 4 4 3 3 4 4 4 5 5 5 6 6 6 5 5 5
3 3 3 4 4 4 4 3 3 3 3 4 4 4 4 4 3 3 3 4 5 5 4 3 2 2 3 3 3 3 3 3 3 4 3 3 3 3 3 4 4 4 4 4 4 5 6 6 6 5 5 5 4 4
4 4 3 3 3 3 4 4 4 4 4 4 4 4 4 3 3 4 4 3 3 3 3 3 3 3 3 3 2 2 3 3 3 2 3 3 4 4 4 4 4 4 4 5 5 4 4 4 4 4 4 3 3 3
4 4 4 4 4 4 4 5 4 4 4 4 4 4 3 3 3 4 4 3 3 3 3 3 2 2 2 2 3 3 3 3 3 4 4 4 4 4 4 5 5 5 5 4 4 4 5 4 3 3 3 3 3 3
4 4 4 3 3 4 4 3 3 3 3 3 3 4 3 3 3 3 3 2 2 2 2 2 2 3 3 3 3 3 4 3 3 4 4 4 4 4 4 4 4 4 4 4 4 3 3 3 3 3 3 3 3 3
3 3 3 3 3 3 3 3 3 3 3 2 2 2 2 2 2 2 2 3 3 3 3 3 3 3 3 3 3 4 4 4 4 4 4 4 3 3 3 4 4 4 3 3 3 3 3 3 3 3 4 3 3 3
3 3 2 2 2 2 2 2 2 3 3 3 4 4 4 4 4 4 3 3 4 4 4 3 3 3 4 4 4 4 4 3 3 3 3 3 4 4 4 3 3 3 3 2 3 3 3 4 4 4 3 3 3 3

GFSWCAN_250_rhum_003.txt.gz
RH
90 86 84 93 100 86 83 100 95 80 72 82 76 80 79 89 99 100 100 100 100 100 93 90 88 94 97 98 88 82 89 80 77 74 66 64 78 80 76 73 62 51 39 48 46 46 50 54 59 58 67 86 97 86
97 84 81 85 100 100 93 88 100 100 89 92 100 99 93 98 98 100 100 100 100 100 98 100 100 94 84 83 90 87 79 69 64 59 63 82 84 70 65 60 64 75 57 42 42 64 61 62 64 74 95 92 88 85
92 89 69 76 90 100 100 74 95 100 100 92 92 100 100 100 100 97 96 100 100 85 92 96 94 90 87 88 82 81 75 65 58 86 76 80 77 60 56 52 56 63 56 48 49 65 67 72 86 90 87 85 71 68
86 84 75 76 79 100 100 100 96 98 100 98 96 97 100 100 100 95 94 96 91 80 84 86 84 81 78 75 70 66 68 76 98 86 84 77 63 54 46 50 58 70 56 58 73 75 82 88 91 94 87 72 64 64
96 83 77 73 83 87 99 100 100 100 100 100 100 100 98 93 96 96 93 90 88 83 79 85 75 75 79 70 65 68 88 98 80 63 61 69 77 61 53 52 69 69 72 74 74 86 97 98 100 90 78 61 57 69
98 100 83 74 83 84 90 98 100 100 100 100 100 100 100 100 89 74 71 78 85 83 83 84 80 70 70 78 95 100 92 89 64 73 82 74 66 48 52 63 82 77 93 90 97 90 91 93 82 65 55 59 76 91
67 88 100 78 68 89 81 93 100 100 100 100 100 100 100 100 100 100 100 95 88 82 80 77 81 93 100 98 97 84 80 88 94 89 68 76 74 73 72 85 92 91 80 80 94 85 70 63 62 75 85 80 87 86
72 81 96 100 82 70 88 88 100 98 96 100 100 100 100 100 100 100 100 100 100 100 100 83 93 96 100 98 98 100 100 93 84 68 58 67 73 91 78 72 67 76 96 98 86 75 76 86 88 77 81 85 70 64
63 70 91 99 100 88 89 95 85 87 100 97 93 97 100 92 96 100 100 100 100 99 86 81 95 100 100 100 100 100 100 94 74 74 79 79 72 70 80 86 90 92 92 79 73 76 78 71 69 76 62 57 54 48
46 59 72 85 86 93 95 82 94 96 88 90 96 82 79 96 100 96 99 91 88 88 81 88 100 100 100 100 100 98 98 100 94 100 100 100 100 100 97 99 99 90 74 80 78 70 67 70 74 64 68 57 40 34
24 40 65 81 82 84 100 99 82 93 100 100 96 86 94 99 91 81 79 75 63 62 70 82 89 96 97 88 90 87 79 76 80 89 95 88 92 92 94 87 77 65 67 59 51 58 57 65 64 67 61 48 38 30
22 26 47 69 88 94 100 100 98 86 82 96 93 95 80 76 76 84 86 83 73 67 81 92 94 95 92 88 87 91 99 94 89 87 80 74 67 59 56 53 50 54 54 58 58 67 68 73 61 39 36 30 28 22
27 22 36 47 77 92 94 99 99 100 90 72 71 68 65 64 72 62 73 86 88 83 84 81 74 73 87 96 91 88 92 96 87 80 78 70 61 52 45 54 66 58 59 62 63 66 66 42 33 30 24 19 20 19
24 23 21 30 45 60 75 84 86 90 87 89 86 83 88 86 84 86 85 87 94 100 98 96 100 93 89 92 92 86 80 71 60 57 56 52 50 46 58 54 51 56 57 72 73 73 40 28 21 20 19 18 16 14
15 20 28 28 30 40 58 72 77 84 83 87 86 76 74 78 82 75 79 97 94 89 87 82 76 72 76 78 77 71 65 59 55 51 50 52 64 66 64 64 64 75 62 60 51 32 21 17 17 17 17 16 14 10
11 13 22 23 26 38 46 61 73 74 80 83 79 82 81 87 95 100 94 84 80 84 84 78 75 72 68 67 63 64 61 62 63 67 77 90 79 64 67 68 68 50 50 43 25 18 15 14 15 15 15 13 9 7
11 12 13 22 26 25 51 49 49 78 80 81 87 78 71 71 86 88 87 90 90 88 86 89 89 96 90 86 88 86 82 76 78 82 80 72 59 59 50 48 44 35 23 17 16 13 13 14 13 12 11 8 7 6
8 10 11 12 14 16 25 42 42 38 45 41 62 74 82 73 79 90 90 91 94 92 93 90 89 82 89 85 81 80 75 70 78 84 66 67 51 42 37 30 20 16 16 13 12 12 12 11 10 9 7 6 6 5
9 11 12 11 13 13 12 12 14 29 46 39 48 58 57 58 66 67 71 66 62 67 70 80 81 84 82 67 57 61 62 58 56 66 60 48 35 21 14 12 12 12 11 11 11 11 9 8 7 6 6 6 5 4
7 7 8 8 7 8 8 9 11 13 20 44 51 56 55 64 53 48 57 68 77 84 89 87 85 50 40 50 58 52 44 36 28 25 24 17 12 11 12 11 11 11 10 10 8 7 8 6 5 5 4 4 4 4
7 8 7 7 8 8 8 9 9 10 11 13 16 23 36 35 28 24 24 28 32 40 41 28 20 21 24 23 19 18 16 12 11 12 12 12 13 12 11 10 10 9 7 6 7 7 5 5 5 4 4 4 4 4
6 6 7 8 9 9 9 9 10 11 12 12 12 11 12 13 13 14 14 15 17 17 15 16 17 14 11 11 12 11 10 11 12 12 12 11 11 11 11 9 8 6 6 6 6 5 4 5 4 4 4 4 4 4
6 7 7 9 11 12 13 12 11 10 9 9 8 7 7 7 8 9 10 12 13 11 11 10 10 9 9 9 9 9 9 10 10 11 11 10 9 7 6 6 5 6 6 5 4 4 4 4 4 4 4 4 4 4
5 6 6 7 7 7 7 6 6 6 7 8 8 8 9 8 8 8 9 9 8 7 7 7 7 7 7 8 8 9 9 10 9 8 6 6 6 5 5 5 5 5 4 4 4 4 4 4 4 4 4 4 4 4
5 5 5 6 6 6 5 5 6 6 6 6 6 6 6 6 7 7 8 7 6 6 6 6 7 7 7 8 8 8 8 6 5 5 6 4 4 6 6 4 4 3 3 4 4 4 4 4 4 4 4 4 5 5
4 4 4 4 4 5 5 6 6 6 6 6 6 5 5 6 6 6 6 5 5 5 5 6 6 6 6 6 6 5 4 4 4 5 5 4 4 3 4 4 3 3 3 4 4 4 3 4 4 4 4 5 5 5
4 4 4 4 4 5 5 5 5 4 4 5 5 5 5 5 4 4 4 5 5 4 4 4 4 4 4 4 3 4 4 4 3 3 3 3 3 3 3 3 3 3 3 3 4 4 4 4 5 5 5 4 4 5
4 4 4 5 5 4 4 3 3 3 3 4 4 4 4 3 3 3 4 4 4 4 3 3 4 4 4 4 3 3 3 2 3 3 3 3 3 2 2 3 3 3 4 4 4 4 4 5 5 4 4 4 3 3
3 4 3 3 3 3 3 3 4 3 3 3 3 3 3 4 4 4 4 4 4 4 4 3 3 3 3 3 3 3 3 2 2 2 2 3 3 3 3 3 4 4 4 4 4 4 4 4 4 4 3 3 2 3
3 3 3 3 3 3 4 3 3 3 3 3 3 3 3 3 4 3 3 3 3 3 3 3 3 3 2 2 2 2 3 3 4 4 4 3 3 3 4 4 4 4 4 4 3 3 4 4 3 3 3 3 3 3
4 4 4 3 3 3 4 4 3 3 3 3 3 3 3 3 3 3 3 3 3 2 2 2 2 3 3 3 3 3 3 4 4 4 4 3 3 3 3 4 3 3 3 3 4 3 3 3 3 3 3 3 4 4
4 4 4 3 3 4 4 3 3 3 3 4 4 3 3 3 3 2 2 3 3 3 3 4 4 4 4 3 3 3 3 3 3 3 3 3 3 3 3 3 3 3 3 3 2 2 3 3 3 3 4 4 4 4
3 3 3 3 3 3 3 2 2 2 2 3 3 3 4 4 4 4 4 3 3 3 3 3 3 3 3 3 3 3 3 3 3 3 3 3 3 3 3 2 2 2 2 2 2 3 3 3 4 4 4 4 3 3

GFSWCAN_250_rhum_006.txt.gz
RH
97 81 81 93 100 97 92 100 100 100 97 100 98 94 92 79 79 90 100 100 100 100 99 94 100 100 100 100 86 85 89 83 74 78 76 71 84 86 78 78 81 71 53 50 46 48 45 50 48 51 59 72 83 98
93 89 80 88 96 100 100 82 100 100 100 100 100 99 99 98 82 74 93 100 100 100 94 93 87 94 100 100 94 87 82 78 75 68 66 83 84 76 76 88 100 88 68 56 42 67 50 51 55 66 74 73 71 76
96 82 81 72 80 94 100 99 71 87 100 97 77 97 100 100 100 100 100 100 100 100 100 100 100 98 92 97 93 87 88 84 78 76 80 83 69 69 84 95 85 80 69 64 56 56 57 69 77 80 64 70 91 96
89 99 84 73 67 80 96 100 92 82 76 99 93 62 66 84 98 100 100 100 100 97 91 95 88 86 96 96 85 80 76 78 84 83 77 68 65 68 86 78 77 82 60 51 62 70 77 70 66 70 89 97 97 92
87 95 90 76 66 87 100 97 100 100 100 88 95 93 62 68 77 86 86 85 86 74 91 100 92 97 91 79 78 74 65 62 64 68 70 78 85 76 62 66 99 70 56 58 58 60 72 84 99 100 95 87 78 70
100 98 91 81 70 65 97 98 100 100 100 100 95 92 97 99 91 90 89 90 98 100 98 99 94 91 86 92 97 88 71 68 77 80 81 81 78 66 58 62 92 61 61 67 86 94 98 98 82 73 77 74 62 53
91 100 96 95 88 73 68 91 99 99 100 100 100 100 100 100 97 94 94 100 95 90 91 87 86 98 100 92 86 84 91 90 89 86 80 82 80 66 56 64 60 68 85 91 91 91 88 84 79 74 62 58 52 57
76 98 100 100 100 100 75 70 95 94 92 96 100 100 100 100 100 100 100 100 100 100 94 80 91 98 97 94 97 100 100 100 85 77 78 85 68 65 69 81 78 80 85 93 98 88 82 81 80 72 62 53 50 56
42 77 98 100 100 92 100 86 85 74 77 91 93 91 100 100 98 100 100 100 100 100 97 87 99 100 100 100 100 96 88 83 73 76 66 55 55 70 86 80 82 93 93 86 82 82 85 76 66 59 55 62 65 60
30 51 78 88 95 98 97 100 89 85 85 89 90 96 97 91 100 97 90 76 75 75 60 74 92 83 98 100 100 100 98 89 74 69 64 63 82 100 92 95 98 98 100 100 96 91 73 66 63 64 69 62 56 55
29 40 54 72 76 88 100 100 96 92 92 98 83 80 89 99 100 99 92 80 86 89 82 80 95 97 94 100 97 87 81 85 85 85 93 90 100 100 100 100 100 100 100 96 92 78 72 69 70 64 74 73 63 47
19 35 50 56 58 70 86 99 100 100 100 97 92 96 86 82 99 97 94 91 84 82 82 97 100 100 100 100 100 100 100 92 89 99 100 100 100 100 100 100 100 95 88 86 82 75 66 66 66 71 66 60 48 38
18 20 32 46 62 74 82 90 97 96 97 100 100 100 93 88 83 87 94 85 82 84 88 90 89 88 86 78 75 75 72 71 75 76 92 100 96 94 97 92 75 64 60 67 65 68 75 81 76 63 53 38 34 21
16 16 19 36 46 59 71 83 95 100 100 100 100 100 100 94 89 82 87 87 86 77 75 85 95 90 91 86 86 88 82 80 78 82 85 84 81 76 70 67 71 73 81 82 75 85 74 64 60 52 36 28 16 12
12 13 15 18 28 46 59 72 76 88 93 95 96 99 100 95 79 76 81 94 96 92 85 79 78 79 78 74 66 79 86 68 68 70 71 75 78 84 81 78 76 78 80 80 71 65 64 56 45 47 30 15 11 12
10 11 12 14 18 27 42 53 70 68 79 92 98 97 94 99 96 82 71 70 73 68 71 80 81 77 75 76 79 76 68 63 61 67 75 80 89 84 78 80 83 75 68 67 61 57 50 43 38 20 13 11 12 11
9 10 12 13 14 17 24 27 33 39 42 62 85 96 98 93 92 99 99 87 78 78 78 74 73 71 67 67 66 64 69 74 76 74 84 94 86 79 76 80 76 58 52 52 48 41 34 21 13 11 10 12 11 9
10 9 9 12 13 16 19 20 22 28 30 28 46 64 74 82 93 96 95 91 90 86 80 83 89 87 83 75 68 65 71 77 76 81 80 82 76 72 64 54 37 33 31 36 27 18 12 11 10 10 11 11 9 7
10 10 10 10 12 14 16 17 18 19 24 28 26 35 50 65 73 72 74 74 72 73 74 84 77 77 67 59 65 78 83 72 68 60 56 58 56 45 32 26 21 18 18 18 13 10 10 10 10 9 9 7 6 6
8 11 10 10 9 9 10 12 14 14 15 19 24 27 29 30 33 42 49 52 56 63 64 63 54 41 45 50 49 48 43 41 38 35 37 29 25 19 15 12 13 14 12 10 9 9 10 8 8 7 6 5 6 4
6 6 8 8 8 8 7 7 8 11 12 13 14 21 43 45 34 32 35 36 35 40 39 32 31 32 34 36 36 36 36 24 20 16 16 16 15 14 14 12 11 9 8 8 8 9 8 7 5 5 5 5 4 4
5 4 5 6 7 7 7 6 6 7 8 10 11 11 12 13 15 17 18 30 36 34 22 24 35 29 20 15 14 14 14 12 11 11 12 13 13 12 11 10 8 8 8 8 7 7 6 4 4 5 4 4 4 4
4 4 5 6 6 8 8 8 8 8 8 9 9 10 10 11 12 12 13 13 13 12 12 13 13 13 12 11 10 9 9 10 11 12 11 10 9 8 8 8 7 6 6 6 5 5 4 4 4 4 4 4 4 4
5 5 5 6 7 9 10 12 11 11 11 10 10 10 9 8 8 8 10 11 10 10 10 11 10 9 9 9 9 9 9 9 8 8 8 6 6 6 6 6 5 4 4 5 4 4 4 4 4 4 4 4 4 4
6 7 7 8 9 9 10 10 10 8 6 6 6 7 8 7 8 9 9 7 7 7 7 7 7 8 8 8 7 7 6 6 6 7 6 5 4 4 4 4 4 4 4 4 3 3 4 3 3 3 4 4 5 5
5 6 7 7 8 8 7 7 7 8 8 8 8 7 7 7 7 6 5 5 5 6 6 6 6 6 6 6 6 6 6 6 6 5 5 4 3 4 4 4 4 3 3 3 3 3 3 3 4 4 4 5 5 6
4 4 5 5 6 6 7 7 7 7 7 7 6 6 5 5 4 4 5 5 5 5 5 4 4 5 5 5 4 4 4 4 3 4 4 4 4 4 4 3 3 3 3 4 4 4 4 4 4 4 5 5 5 5
5 5 5 6 6 5 5 5 4 4 4 4 4 4 4 5 5 5 5 4 4 4 4 4 4 4 3 3 4 4 3 3 3 3 3 3 3 3 3 3 3 3 4 4 4 4 4 4 4 4 4 4 4 4
5 5 4 4 4 3 3 3 4 4 4 4 3 3 3 3 4 4 3 3 3 4 4 4 4 4 4 3 3 3 3 3 2 2 2 2 3 4 3 3 3 3 4 4 4 4 4 3 3 3 4 3 3 3
3 2 3 3 3 3 3 3 3 3 3 3 3 3 3 4 4 3 4 4 4 4 4 4 3 3 3 3 2 2 2 3 3 4 4 3 3 3 4 3 3 3 3 3 3 3 3 3 3 3 3 3 2 3
4 4 4 3 3 3 3 3 3 3 3 3 4 4 4 4 3 3 3 3 3 3 3 3 2 2 2 2 3 3 3 3 3 4 4 3 3 3 3 3 3 3 3 3 3 3 2 2 2 2 2 3 3 4
3 3 3 3 3 3 3 4 3 3 3 3 3 3 3 3 3 3 2 2 2 2 3 3 3 3 3 4 3 3 3 3 3 3 3 3 3 3 2 2 2 2 2 2 2 2 2 2 2 2 3 3 4 4
3 3 3 3 3 4 4 4 3 3 3 3 2 2 3 3 3 4 4 4 4 4 4 4 4 3 3 3 3 3 3 2 2 2 2 2 2 2 2 2 2 2 2 2 2 2 2 2 3 3 4 4 4 4

GFSWCAN_250_rhum_009.txt.gz
RH
78 99 100 100 100 100 100 100 100 97 89 94 88 83 94 100 100 100 100 100 100 97 95 100 100 84 73 74 98 100 100 100 100 98 90 80 78 79 79 76 69 67 66 63 63 72 50 56 51 54 45 42 44 52
85 94 100 100 100 96 100 100 100 100 97 97 91 88 82 76 92 100 100 100 100 100 100 100 100 100 100 75 83 91 98 97 100 100 100 83 74 82 83 80 85 82 73 72 52 81 61 47 45 42 44 50 54 66
86 76 100 99 100 100 100 100 100 100 100 96 100 93 95 87 76 84 86 84 72 64 96 100 100 100 100 100 100 86 77 66 65 78 87 78 60 75 77 78 80 82 69 64 72 88 74 70 60 60 67 73 83 88
88 79 95 98 94 100 100 95 96 100 100 100 100 98 95 82 96 97 93 88 82 90 81 84 95 100 98 97 80 84 95 96 91 81 72 68 55 57 67 60 61 83 72 62 71 72 64 63 56 60 72 94 100 100
69 76 91 100 96 93 94 95 99 100 99 100 100 100 100 95 95 94 95 95 93 90 86 90 84 96 89 77 93 100 100 96 90 85 73 70 63 63 60 59 94 98 74 66 65 66 63 53 58 76 96 100 95 89
67 66 92 91 84 89 94 100 100 100 100 88 100 100 100 100 100 100 93 88 88 94 92 98 84 80 86 100 100 98 86 87 84 81 77 79 80 74 69 88 100 99 69 68 69 56 55 61 83 98 91 81 85 87
65 72 90 96 77 79 80 100 100 100 100 100 100 98 98 100 100 100 99 98 97 100 96 100 96 91 100 94 85 81 81 82 83 75 74 83 94 81 69 93 98 77 83 77 63 61 67 92 94 93 93 100 91 81
65 75 78 84 91 86 90 98 100 100 94 95 100 100 100 100 100 100 100 100 91 75 62 52 58 88 99 94 87 89 95 95 93 91 94 100 83 75 71 93 77 76 75 78 77 85 96 92 85 96 97 85 83 88
26 52 72 82 94 93 89 87 100 100 98 81 97 100 100 97 100 100 100 100 100 100 86 78 92 98 99 99 96 96 98 100 96 100 90 70 59 67 86 91 84 90 90 88 80 81 86 85 96 94 90 88 94 90
23 32 54 75 87 97 98 90 87 100 100 90 89 100 100 100 100 99 95 90 87 82 78 89 100 100 100 100 100 100 100 99 66 63 67 63 70 99 99 84 86 88 83 84 84 84 90 100 92 94 94 94 82 78
21 27 45 64 80 86 96 97 100 99 100 96 91 90 99 100 99 97 93 92 92 90 86 85 85 85 82 78 82 90 89 78 72 72 80 78 88 100 92 97 100 98 93 88 85 91 82 78 81 82 82 77 77 81
20 22 32 43 69 84 92 96 100 100 95 100 100 100 100 100 100 94 97 93 85 92 96 93 92 94 84 89 87 81 79 82 86 88 92 97 100 100 100 100 100 98 95 80 82 85 75 70 70 74 74 79 86 85
19 19 24 32 42 59 92 98 95 100 100 100 100 100 94 91 100 100 87 80 94 84 88 99 100 100 100 97 98 100 99 96 92 86 81 88 93 100 100 92 82 82 82 76 80 80 77 72 68 65 75 86 77 74
17 18 18 21 25 44 62 82 91 99 100 100 98 97 96 95 84 78 85 100 94 82 80 92 92 97 100 100 100 97 92 88 82 84 94 94 88 83 85 87 88 88 86 82 77 69 62 60 68 85 83 72 64 35
15 15 15 16 18 27 41 56 74 82 87 100 100 98 97 92 83 82 84 73 70 82 79 78 84 95 100 100 99 95 87 84 85 81 84 90 88 91 87 79 74 69 72 69 67 65 63 66 74 71 65 49 25 15
14 14 14 14 15 18 23 27 43 56 78 96 100 100 96 91 86 81 85 92 90 78 84 80 75 72 68 64 65 70 72 70 70 67 65 65 66 62 52 52 64 66 61 57 56 60 67 67 64 55 37 19 14 13
12 13 14 14 14 15 16 17 22 37 52 63 83 94 97 99 95 91 94 88 82 78 77 72 68 63 64 64 63 63 65 66 65 68 67 62 56 51 52 59 54 46 53 57 63 65 62 50 36 19 12 13 12 11
10 9 10 11 13 14 15 16 16 19 30 43 64 86 100 100 100 91 83 80 85 92 87 76 63 66 72 58 45 48 53 54 58 51 46 48 45 41 40 44 50 54 56 56 47 36 28 18 11 11 10 10 9 9
9 10 9 11 11 12 13 15 15 15 18 26 38 47 72 95 90 83 76 74 75 77 68 58 62 66 56 53 61 66 65 54 52 53 46 42 41 37 42 44 38 34 32 24 18 12 10 10 9 8 8 8 8 8
7 8 8 9 10 11 12 13 14 15 16 16 17 22 36 56 72 74 68 69 72 65 61 57 48 40 47 44 40 41 43 44 46 44 42 38 39 45 40 33 24 18 12 9 9 9 8 8 7 7 7 7 6 5
7 8 8 7 7 8 9 10 10 12 13 15 16 17 19 20 22 28 36 34 30 33 38 39 40 37 43 43 36 30 28 29 27 26 30 31 30 27 19 14 11 10 9 9 8 8 7 6 6 7 6 5 4 5
6 6 7 7 6 6 6 6 7 8 9 10 12 13 14 15 17 18 19 20 20 19 18 19 19 20 21 23 22 21 21 19 17 16 14 12 11 11 11 10 10 8 7 7 6 6 7 6 6 5 4 4 4 4
7 6 7 6 5 5 5 5 6 6 6 7 8 9 10 11 12 13 14 15 15 16 16 16 16 16 15 13 12 11 11 11 10 11 11 10 10 10 9 7 6 6 6 6 6 6 6 5 4 4 4 4 4 3
5 6 6 5 5 5 5 6 5 5 5 6 6 8 8 8 8 9 10 9 9 10 10 10 10 10 9 9 9 9 9 10 10 11 11 8 6 6 6 6 6 5 5 5 5 4 4 4 4 4 3 3 3 4
4 4 4 5 7 8 8 8 8 7 6 7 8 8 9 9 10 10 9 8 8 8 8 8 8 9 9 9 9 9 9 9 8 8 7 6 6 5 5 5 5 5 5 4 4 4 4 3 3 3 3 4 4 4
6 6 6 6 7 7 7 7 7 7 7 7 7 6 6 5 6 7 7 7 7 8 8 8 8 8 9 8 8 7 6 5 5 6 6 5 5 4 4 4 4 4 4 3 3 3 3 3 4 4 4 4 4 4
6 6 7 6 6 6 6 6 6 6 5 5 5 6 6 6 6 6 6 6 6 7 7 7 6 5 5 5 5 5 5 5 4 4 4 4 4 4 4 4 4 4 4 3 3 4 4 4 4 4 4 4 4 4
5 6 6 6 6 5 5 6 6 6 7 6 6 5 5 5 6 6 7 6 5 4 4 4 4 4 4 4 4 4 3 3 3 4 4 3 4 4 4 3 3 3 3 4 4 4 4 4 4 4 3 3 3 3
4 4 4 4 5 5 5 5 5 4 4 4 5 5 6 6 6 5 4 4 4 4 4 4 4 3 3 3 3 4 4 4 3 3 3 3 3 2 2 3 4 4 4 4 3 3 3 3 4 3 3 3 3 3
4 4 4 4 4 4 4 5 5 5 4 4 4 4 4 4 4 4 4 3 3 3 3 3 3 3 3 3 3 4 4 4 3 3 3 3 3 4 4 4 4 4 3 3 3 3 3 3 3 2 2 2 2 2
3 3 3 4 4 4 3 3 3 3 3 3 3 3 3 3 3 3 3 3 4 4 4 3 3 3 3 3 3 3 3 3 4 4 4 4 4 4 3 3 3 3 2 2 2 2 2 2 2 2 2 2 2 2
4 3 3 3 3 3 3 3 3 3 3 4 4 3 3 4 4 3 3 3 3 3 3 3 3 3 3 4 4 4 3 3 3 3 3 3 3 3 2 2 2 2 2 2 2 2 2 2 2 2 2 2 3 3
3 3 3 3 3 4 4 4 4 3 3 3 3 3 3 3 3 2 2 2 3 4 4 4 4 4 3 3 3 3 3 3 3 2 2 2 2 2 2 2 2 2 2 2 2 2 2 2 2 3 3 3 3 3

GFSWCAN_250_rhum_012.txt.gz
RH
100 100 95 100 100 100 100 100 100 100 97 97 96 98 98 86 95 100 100 100 100 100 100 86 80 93 90 84 78 78 63 69 75 75 86 90 80 84 76 70 71 57 52 52 47 57 58 60 55 54 56 46 45 48
98 100 97 93 100 100 100 100 100 100 100 100 99 99 93 93 96 98 84 94 100 100 100 100 100 100 99 72 100 100 98 100 82 73 61 64 63 58 61 61 66 69 73 62 54 56 51 52 40 44 40 46 50 54
86 100 94 97 100 100 100 100 100 100 100 100 100 100 100 100 92 91 97 87 85 85 87 99 100 100 100 100 100 100 100 100 100 100 96 89 74 81 83 96 88 76 84 69 56 62 59 71 52 54 49 48 50 56
80 96 98 98 100 100 100 100 100 100 100 100 100 100 100 96 89 88 90 93 86 91 90 100 100 100 100 100 100 100 100 100 100 100 100 84 79 70 99 99 86 100 83 84 71 66 76 67 59 59 58 60 66 76
69 86 96 95 100 100 100 100 100 100 100 100 100 99 92 96 94 96 99 92 86 88 81 93 89 92 84 79 70 66 81 88 100 100 100 84 79 88 88 76 88 100 97 88 75 65 76 66 69 65 73 85 82 81
70 76 94 91 99 100 100 100 100 100 100 100 100 100 100 100 90 80 75 72 88 80 74 85 83 76 74 72 77 79 81 89 100 94 85 83 91 94 73 65 100 100 100 94 91 66 66 73 74 79 87 91 86 80
72 69 86 87 95 90 89 94 100 100 100 100 96 97 100 100 100 100 98 98 90 84 74 65 63 66 84 93 100 99 100 98 95 80 85 100 99 66 62 94 100 100 99 82 78 70 83 87 80 84 90 90 79 81
65 70 81 74 78 86 95 88 95 100 100 100 100 100 100 100 100 100 100 100 100 100 100 98 98 100 100 100 100 97 100 98 96 95 82 82 75 67 71 100 97 94 75 65 70 86 88 92 94 92 87 81 84 85
64 63 69 72 73 82 77 83 81 93 100 100 100 100 100 100 100 100 97 100 100 100 100 100 100 100 100 100 100 100 99 97 78 74 82 76 74 87 100 94 81 66 79 78 81 85 96 95 85 85 86 87 89 95
50 49 54 62 65 78 80 87 95 93 95 100 98 98 97 100 100 100 100 100 98 96 87 99 100 100 99 100 100 100 98 86 72 75 79 71 68 95 100 90 87 83 82 85 85 90 85 84 93 92 93 95 99 100
31 30 40 50 63 73 85 88 86 91 91 92 97 100 100 100 100 100 96 90 89 89 93 95 80 91 97 99 100 100 97 89 81 78 85 88 97 100 100 98 95 93 91 96 96 91 96 100 99 98 98 100 100 94
34 32 20 29 49 69 77 83 82 78 86 92 98 100 100 100 100 100 100 100 100 100 100 100 100 100 93 93 92 89 89 94 90 89 92 92 98 97 100 100 99 99 98 98 98 100 100 100 98 90 84 76 71 63
30 27 26 22 36 63 79 89 95 97 97 100 99 99 96 95 93 91 90 86 94 100 100 100 100 100 100 100 98 96 88 79 83 84 84 88 93 95 94 95 98 100 100 100 100 100 98 83 76 70 60 62 62 63
33 29 25 36 29 35 47 69 77 83 92 97 95 95 92 86 84 81 74 90 100 99 94 99 100 100 100 100 100 100 96 91 85 86 91 93 86 80 85 86 78 80 77 79 73 71 66 62 58 62 68 63 52 38
28 30 27 24 24 22 23 30 38 64 77 89 92 94 95 82 70 72 83 80 78 81 92 95 88 88 97 100 99 98 96 87 82 80 81 91 95 90 84 77 67 67 68 62 61 61 60 64 61 59 44 33 32 37
20 22 22 23 24 24 23 23 25 30 55 75 88 89 98 99 98 92 77 77 77 68 69 74 72 70 78 82 83 82 85 85 77 64 62 62 59 61 60 55 60 68 67 55 51 51 46 40 38 30 26 29 36 27
16 16 17 18 19 20 20 20 20 22 28 48 59 72 86 91 90 93 96 91 88 86 75 61 59 58 57 55 56 56 56 56 55 53 52 50 50 50 55 56 49 40 38 36 31 30 26 22 22 23 26 20 12 11
12 13 14 14 15 15 15 16 16 17 18 22 33 46 63 73 94 100 100 94 86 84 88 86 71 65 62 58 59 62 62 57 51 49 53 51 43 38 34 34 37 32 27 30 26 26 24 24 24 16 11 11 10 11
10 10 11 12 12 13 13 13 14 14 16 16 20 24 30 34 46 70 83 83 83 80 85 88 82 72 60 68 74 71 62 45 36 37 34 30 27 30 28 24 29 34 35 26 22 20 16 13 11 11 9 9 9 8
9 9 9 10 10 10 11 12 12 13 14 14 15 17 17 18 20 36 57 56 55 59 60 55 57 62 66 69 69 58 47 41 38 37 34 30 28 32 29 21 19 17 16 15 14 13 12 11 10 9 8 8 7 6
7 8 8 8 9 9 10 10 11 12 12 13 14 15 15 16 17 18 23 26 24 24 22 24 38 50 60 59 52 50 48 48 40 29 27 22 20 18 18 16 15 14 13 13 12 12 11 9 8 7 7 6 5 4
6 6 6 7 6 7 8 9 9 9 9 10 11 12 13 14 15 15 16 16 16 17 18 20 24 27 28 27 26 25 22 19 18 17 17 16 16 15 14 12 12 12 12 13 12 9 8 7 7 6 5 5 4 4
5 5 6 6 7 6 6 6 7 7 8 8 8 9 10 11 11 12 13 14 14 14 15 16 16 16 16 16 15 15 16 16 16 15 14 12 12 11 11 12 11 11 11 9 7 6 5 6 5 4 4 4 4 4
6 6 5 5 6 6 7 6 6 6 6 6 6 6 6 7 7 8 8 8 9 9 10 10 11 11 11 11 11 10 11 11 10 10 11 11 11 10 9 9 9 8 6 5 5 5 5 4 4 4 4 4 3 3
6 6 6 6 7 7 6 6 6 6 7 6 6 6 6 6 7 7 7 7 7 6 7 7 6 6 6 7 8 8 10 10 11 11 9 7 8 8 8 7 6 5 5 4 4 4 4 4 4 4 3 3 4 4
5 5 6 6 7 7 7 8 9 8 7 6 6 6 6 6 6 6 7 6 6 5 5 5 6 7 7 7 8 8 8 8 7 7 7 6 6 6 6 5 5 4 4 3 4 4 4 4 3 3 3 4 4 5
5 5 5 5 5 5 6 6 6 6 5 5 4 4 4 4 4 4 3 4 5 5 6 6 6 6 6 6 7 7 7 6 5 6 5 5 4 4 4 4 4 4 4 4 4 3 3 3 4 4 4 4 4 4
6 6 6 7 6 6 6 6 5 5 4 4 4 4 4 4 5 5 6 6 6 6 5 5 5 4 5 5 5 4 4 4 4 4 3 3 3 3 3 4 4 4 4 3 3 3 4 4 4 3 3 3 3 3
4 5 5 5 5 5 5 5 5 5 5 5 5 5 5 5 6 6 5 4 4 4 4 4 4 4 4 3 3 3 3 3 3 3 3 3 3 3 4 3 3 3 3 4 3 3 3 3 3 3 2 2 2 3
3 3 3 3 4 4 4 4 4 4 4 4 4 5 5 5 4 4 4 4 4 4 4 4 3 3 3 3 3 3 3 3 3 3 3 3 3 3 3 3 3 3 3 3 2 2 2 2 3 3 3 2 2 2
3 3 3 3 3 3 4 4 4 4 4 4 4 4 4 4 4 3 3 3 3 3 3 3 3 3 3 3 3 3 3 3 3 3 3 4 4 4 3 3 2 2 2 2 2 2 2 2 2 2 2 2 2 2
4 4 4 4 4 3 3 3 3 3 3 3 3 3 3 3 3 3 3 3 3 3 3 3 3 3 3 3 3 3 4 4 4 4 4 3 3 3 2 2 2 2 2 2 2 2 2 2 2 3 3 3 3 3
3 3 3 3 3 3 3 3 3 3 3 3 3 3 3 3 4 3 4 3 3 3 3 3 3 4 4 4 4 3 3 3 3 2 2 2 2 2 2 2 2 2 2 2 2 3 3 3 2 2 2 2 2 2